Temperature
5 3 2 3 3 4 4 4 4 4 4 3 3 3 3 3 3 3 3 3 3 4 4 5 5 5 6 6 6 6 6 6 6 6 6 6 6 6 7 7 7 7 7 8
2 2 3 3 4 4 4 4 3 3 3 3 2 2 2 2 2 2 2 2 2 3 3 4 4 5 5 5 5 5 6 6 6 6 6 6 6 6 6 6 6 7 7 7
2 3 3 4 3 3 4 3 3 3 2 2 2 2 2 1 1 2 2 2 2 2 2 3 3 4 4 4 4 5 5 5 5 5 5 5 5 5 5 5 6 6 6 6
2 2 3 3 2 3 3 3 3 3 2 1 2 1 1 1 1 0 0 0 1 1 1 2 2 3 3 3 4 4 4 4 4 4 4 4 4 4 5 5 5 5 5 5
1 2 2 2 2 2 2 2 2 2 1 0 0 0 0 -0 -0 -0 -1 -0 -0 0 1 1 2 2 2 2 3 3 3 4 4 4 3 3 4 4 4 4 4 4 4 5
1 2 2 2 2 2 1 1 1 -0 -0 -0 0 0 0 -1 -1 -1 -1 -1 -1 -0 0 1 1 1 2 2 2 2 3 3 3 3 3 3 3 3 3 3 3 3 4 4
0 1 1 1 1 1 0 -0 -1 -1 -1 -1 -0 -0 -1 -1 -1 -1 -2 -1 -1 -1 -0 -0 0 1 1 1 1 1 2 2 2 2 2 2 2 3 3 3 3 3 3 3
-1 -0 0 0 0 -0 -1 -1 -1 -1 -1 -1 -1 -1 -1 -2 -1 -1 -2 -2 -1 -1 -1 -1 -1 -0 0 0 0 1 1 1 1 1 1 1 2 2 2 2 2 3 3 3
-1 -1 -0 -0 0 -0 -1 -2 -1 -2 -3 -2 -2 -2 -2 -2 -2 -2 -3 -2 -2 -2 -2 -1 -1 -1 -0 -0 -0 -0 0 0 0 1 1 1 1 1 1 1 2 2 2 2
-1 -2 -1 -1 -0 -0 -1 -2 -3 -2 -2 -2 -2 -3 -2 -2 -3 -3 -3 -3 -3 -3 -2 -2 -2 -1 -1 -1 -1 -1 -0 -0 -0 -0 -0 -0 -0 0 0 0 1 1 1 1
-2 -2 -3 -2 -3 -2 -2 -2 -3 -3 -3 -2 -2 -2 -2 -3 -3 -4 -4 -3 -3 -3 -3 -3 -2 -2 -2 -2 -2 -1 -1 -1 -1 -1 -1 -1 -1 -1 -0 -0 -0 0 0 1
-2 -3 -4 -3 -3 -2 -3 -3 -3 -3 -4 -4 -4 -2 -3 -4 -4 -4 -4 -4 -4 -4 -3 -3 -3 -3 -3 -2 -2 -2 -2 -2 -2 -1 -1 -1 -1 -1 -1 -1 -1 -0 -0 0
-3 -4 -3 -2 -3 -3 -4 -4 -5 -4 -4 -4 -4 -3 -4 -5 -5 -4 -4 -4 -4 -4 -4 -4 -4 -4 -3 -3 -3 -3 -3 -3 -2 -2 -2 -2 -2 -2 -2 -1 -1 -1 -1 -0
-2 -4 -3 -2 -2 -3 -4 -4 -5 -5 -5 -5 -4 -3 -4 -4 -5 -5 -5 -5 -5 -5 -4 -4 -4 -4 -4 -4 -4 -3 -3 -3 -3 -3 -3 -2 -2 -2 -2 -2 -2 -2 -1 -1
-3 -4 -5 -4 -3 -4 -4 -4 -5 -5 -5 -4 -4 -5 -4 -5 -6 -5 -5 -5 -5 -5 -5 -5 -5 -5 -5 -4 -4 -4 -4 -4 -4 -3 -3 -3 -3 -3 -3 -3 -3 -2 -2 -2
-5 -5 -5 -5 -4 -4 -4 -4 -5 -5 -5 -5 -5 -5 -5 -5 -5 -6 -6 -6 -6 -6 -6 -6 -6 -6 -5 -5 -5 -4 -4 -4 -4 -4 -4 -4 -4 -4 -4 -3 -3 -3 -3 -3
-6 -6 -5 -5 -5 -5 -5 -5 -5 -5 -6 -6 -5 -5 -6 -7 -7 -6 -6 -6 -6 -6 -6 -6 -6 -6 -6 -6 -5 -5 -5 -5 -5 -5 -4 -4 -4 -4 -4 -4 -4 -4 -4 -4
-6 -6 -6 -5 -6 -5 -4 -6 -6 -6 -6 -7 -7 -7 -7 -7 -6 -6 -6 -6 -6 -6 -6 -6 -6 -6 -6 -6 -6 -6 -5 -5 -5 -5 -5 -5 -5 -5 -5 -5 -4 -4 -4 -4
-6 -6 -6 -6 -6 -6 -5 -6 -7 -7 -6 -8 -8 -8 -7 -7 -7 -7 -6 -6 -6 -7 -7 -7 -7 -7 -7 -7 -6 -6 -6 -6 -6 -6 -6 -6 -6 -6 -5 -5 -5 -5 -5 -5
-8 -7 -6 -7 -6 -6 -5 -6 -7 -7 -6 -7 -8 -8 -8 -8 -8 -7 -7 -7 -7 -7 -7 -7 -7 -7 -7 -7 -7 -7 -7 -7 -7 -7 -7 -7 -6 -6 -6 -6 -5 -5 -5 -5
-7 -8 -7 -7 -7 -6 -7 -8 -7 -6 -6 -7 -7 -8 -8 -9 -8 -7 -7 -7 -7 -8 -8 -8 -8 -8 -8 -8 -8 -7 -7 -7 -7 -7 -7 -7 -7 -7 -6 -6 -6 -6 -6 -6
-7 -7 -8 -7 -7 -6 -8 -8 -7 -7 -7 -7 -7 -7 -7 -7 -7 -8 -8 -8 -8 -8 -8 -8 -8 -8 -8 -8 -8 -8 -8 -8 -8 -8 -7 -7 -7 -7 -7 -7 -7 -7 -7 -7
-8 -8 -7 -7 -6 -7 -8 -8 -7 -7 -7 -7 -7 -7 -7 -8 -8 -8 -8 -8 -9 -9 -9 -9 -9 -9 -9 -9 -9 -9 -8 -8 -8 -8 -8 -8 -8 -8 -8 -8 -7 -8 -8 -8
-9 -10 -9 -9 -9 -9 -8 -8 -7 -7 -7 -8 -8 -8 -8 -8 -9 -9 -9 -9 -9 -9 -9 -9 -9 -9 -9 -9 -9 -9 -9 -9 -9 -9 -8 -8 -8 -8 -8 -8 -8 -8 -8 -8
-10 -10 -10 -10 -10 -9 -9 -8 -8 -8 -8 -8 -8 -8 -9 -9 -9 -10 -10 -10 -10 -10 -10 -10 -10 -10 -10 -10 -10 -10 -10 -10 -9 -9 -9 -9 -9 -9 -9 -9 -9 -9 -9 -9
-11 -11 -10 -9 -9 -9 -9 -8 -8 -8 -9 -9 -9 -9 -9 -10 -10 -10 -10 -10 -10 -10 -10 -11 -11 -11 -11 -11 -10 -10 -10 -10 -10 -10 -10 -10 -10 -10 -10 -9 -9 -9 -9 -9
Wind_Speed
3 4 0 3 5 5 3 4 6 5 2 2 5 8 7 4 2 2 2 2 2 3 3 2 3 1 1 1 1 2 4 4 4 3 3 3 2 2 2 3 4 5 5 6
4 1 3 2 2 3 4 5 5 4 2 2 4 8 7 4 4 3 3 3 3 3 4 4 3 2 0 1 1 2 2 4 4 4 3 3 2 1 2 2 3 4 5 6
3 3 2 1 2 2 4 5 5 5 4 2 3 6 4 2 2 2 2 2 2 2 2 3 3 3 1 0 1 1 1 2 3 4 3 3 2 2 1 1 1 2 4 5
1 3 2 2 1 1 4 3 5 5 2 3 1 4 5 3 3 3 4 3 3 3 2 3 3 3 2 2 1 1 1 2 3 4 4 5 4 3 2 2 2 1 3 3
2 2 1 1 3 2 4 5 4 3 2 3 2 3 6 2 3 5 4 4 4 3 2 2 3 3 3 2 1 1 1 1 2 4 4 5 4 3 2 2 2 2 1 2
2 2 1 2 2 1 2 3 4 3 2 4 5 4 6 3 4 3 3 3 3 3 3 3 3 3 3 2 1 0 1 1 1 3 4 5 5 4 4 3 3 2 2 1
4 3 3 1 2 4 4 4 3 4 2 5 2 3 6 4 3 3 3 3 4 3 3 4 4 3 3 3 2 2 0 1 1 2 4 4 5 5 5 5 4 3 2 2
1 5 3 2 1 2 1 4 4 4 4 4 3 5 5 3 1 1 1 2 3 3 3 4 4 3 2 2 2 2 1 1 1 2 3 4 4 4 3 4 4 4 4 3
3 5 3 2 1 2 2 2 3 3 1 3 5 5 6 2 2 2 3 4 4 4 4 3 4 4 3 2 1 1 1 1 1 2 2 3 3 3 3 3 3 3 3 3
4 4 4 3 2 1 2 3 3 3 2 4 5 5 4 4 4 3 3 4 4 5 5 5 4 4 4 3 2 1 1 1 1 2 2 2 3 3 3 2 3 3 3 3
3 3 4 2 2 4 1 1 2 3 3 4 4 6 4 5 4 3 4 3 3 4 5 4 4 4 4 3 3 2 2 2 2 2 2 2 3 2 2 2 3 3 3 4
2 3 3 6 4 2 4 4 5 4 4 4 3 7 3 2 2 2 3 4 4 4 4 4 3 4 4 4 4 3 3 3 3 2 2 2 3 2 2 3 3 3 3 4
4 4 1 5 3 1 2 3 4 3 3 4 5 7 2 2 3 2 3 4 4 4 5 4 4 4 4 4 4 4 3 4 4 3 2 2 2 2 3 3 3 3 3 3
3 4 6 8 6 4 3 4 4 5 4 5 8 10 8 7 6 5 4 4 4 4 4 4 4 5 5 5 4 4 4 3 3 3 2 2 2 3 3 3 3 3 3 3
3 4 6 9 7 4 6 7 6 8 9 9 9 10 11 8 6 5 4 4 4 4 4 4 4 5 5 5 6 5 4 4 3 3 2 3 3 2 2 3 2 2 2 2
2 3 2 5 5 5 7 9 10 11 9 10 11 12 9 7 3 4 5 4 4 4 4 4 4 5 5 6 6 5 4 4 3 3 3 3 2 2 2 2 2 2 2 1
3 3 2 5 3 2 7 9 10 6 6 7 11 10 4 4 5 5 5 4 5 4 4 4 4 5 5 6 5 4 4 4 3 3 4 3 2 2 2 2 2 2 3 2
5 4 3 2 1 6 8 2 5 7 6 6 5 5 5 6 5 4 4 4 4 4 4 4 5 5 5 5 4 4 3 3 3 4 4 4 3 2 2 2 3 3 3 3
6 6 3 2 4 8 6 3 3 5 7 5 6 6 6 3 3 4 4 3 4 5 4 4 5 5 5 5 4 4 3 3 3 4 4 4 3 3 3 3 3 3 3 3
2 3 4 3 3 6 6 2 1 2 5 4 4 5 4 1 3 6 3 3 4 4 4 4 4 4 4 5 4 3 4 3 4 5 5 5 3 3 3 4 3 3 3 3
2 2 5 6 6 8 5 2 3 3 7 3 4 5 4 4 6 5 4 4 3 4 4 4 4 4 4 4 4 4 4 5 5 5 5 4 3 3 3 3 2 2 2 2
7 5 5 5 6 8 2 4 5 6 3 2 3 4 4 6 5 4 4 4 4 4 4 4 4 5 4 4 3 4 5 5 5 4 4 4 3 3 2 2 2 2 2 2
7 7 5 8 7 4 3 5 4 2 3 3 3 4 4 5 5 5 5 4 4 4 4 4 4 5 5 4 3 4 6 5 4 4 4 4 3 2 2 2 2 2 2 3
4 2 3 5 7 5 5 4 3 3 4 4 4 5 4 5 5 5 5 5 4 4 4 3 3 4 5 5 4 5 5 4 4 4 4 3 2 2 1 1 2 2 3 3
5 4 4 6 6 5 5 5 5 5 4 4 4 4 4 4 5 5 5 5 4 4 4 3 3 4 5 5 5 5 4 3 3 3 3 3 2 1 1 1 2 2 3 4
3 5 5 7 5 5 5 4 4 4 5 5 4 4 4 4 5 5 5 4 4 4 3 3 4 4 5 4 5 5 4 3 2 2 2 2 2 1 1 1 2 3 2 3
Wind_Direction
33 64 225 243 226 235 236 238 255 263 288 258 243 262 278 270 262 270 278 286 276 268 292 337 345 330 71 96 136 166 169 166 156 161 170 165 177 171 124 104 122 137 143 146
42 339 276 275 282 265 249 253 263 289 316 268 264 273 277 256 241 240 249 272 284 311 334 339 351 359 52 160 173 166 178 176 171 177 182 178 172 168 131 99 105 133 141 149
154 258 306 3 2 309 257 237 258 273 322 330 314 294 283 301 275 287 285 285 303 300 321 328 332 335 346 331 215 201 188 174 175 167 146 135 111 87 92 150 148 113 138 149
333 309 346 8 330 309 268 272 269 269 295 281 227 281 282 279 304 312 312 315 309 314 327 334 329 330 316 279 243 192 181 165 170 160 156 157 165 175 199 191 172 116 132 139
297 318 348 327 302 290 261 302 294 264 216 284 269 231 285 310 280 290 292 298 307 317 326 336 331 312 304 296 266 210 181 168 164 165 162 168 174 176 151 149 145 162 137 141
278 301 281 252 297 299 304 353 13 33 92 264 235 209 277 251 250 282 308 319 316 323 330 335 344 350 344 353 11 301 178 190 175 170 171 175 174 170 155 155 171 182 187 151
327 318 335 2 352 358 40 65 15 352 344 253 234 215 251 262 261 230 263 300 310 325 347 355 354 349 347 352 3 14 182 224 202 186 185 188 186 180 177 180 184 186 192 196
306 294 303 348 192 224 249 135 161 220 249 284 289 236 253 270 278 226 293 328 343 344 348 354 353 349 341 341 352 358 0 310 240 206 209 197 193 189 192 192 191 194 203 206
202 264 311 320 310 159 149 197 178 152 276 278 272 288 300 284 333 357 354 356 346 335 339 341 348 352 344 335 310 311 342 328 270 233 225 209 195 191 196 202 197 199 202 199
171 253 289 318 1 349 161 151 107 139 213 259 279 270 261 258 267 297 322 328 333 344 345 342 342 343 342 334 325 332 335 325 300 238 228 221 215 211 204 201 206 209 206 193
148 191 298 334 210 217 149 156 162 170 186 203 264 268 243 216 217 248 281 307 321 326 325 329 334 335 339 347 352 346 340 336 332 294 252 227 229 219 205 210 219 218 209 196
165 148 253 255 254 236 197 196 168 186 237 213 230 268 287 214 218 241 297 315 319 318 318 322 326 337 347 348 345 328 321 322 314 303 286 241 235 225 217 225 229 224 218 203
150 137 320 324 326 337 243 219 192 175 172 206 221 263 312 334 318 306 296 305 315 320 321 328 338 340 337 332 330 322 313 310 312 308 284 275 247 231 231 233 232 224 218 211
145 171 198 223 238 213 237 246 202 173 203 231 233 256 286 298 296 301 298 293 303 312 317 330 337 334 332 330 325 313 305 310 317 317 289 268 262 246 242 241 232 225 218 213
138 219 234 251 260 232 236 246 218 211 214 222 247 249 267 271 265 268 273 282 298 311 318 326 327 325 328 330 329 323 315 322 323 320 297 274 274 274 259 245 233 230 222 222
159 213 243 269 257 242 263 259 235 233 234 240 259 269 272 275 274 274 273 268 279 291 300 313 318 320 321 321 323 326 328 324 322 311 298 291 282 279 268 250 229 219 217 217
189 182 204 262 288 316 268 246 227 222 219 217 240 255 278 281 266 261 263 256 260 270 286 299 302 304 309 308 311 311 313 323 319 309 307 308 296 288 288 274 243 225 219 211
180 179 200 251 55 242 246 212 210 220 236 226 243 272 267 260 267 266 258 250 260 276 288 294 296 299 302 301 306 307 315 321 315 309 308 305 297 282 280 270 244 233 227 216
192 182 192 196 238 268 281 255 192 209 258 229 236 266 289 311 323 293 273 257 260 270 278 285 289 293 301 304 307 309 314 316 314 307 301 297 291 283 272 261 251 238 229 225
130 172 188 190 217 246 254 259 166 113 271 249 219 242 266 322 279 273 274 274 278 286 292 295 300 304 306 309 314 309 304 305 301 298 296 294 289 273 263 256 253 243 232 230
166 192 207 215 233 259 260 257 123 179 259 267 213 223 228 227 242 265 277 283 283 285 292 301 302 301 299 307 311 301 300 293 294 298 300 298 287 270 263 263 253 232 226 223
184 189 206 198 226 253 222 139 183 230 274 240 230 235 241 251 264 272 278 282 288 295 300 301 300 300 303 305 300 295 292 295 303 302 299 295 284 274 266 251 249 230 214 210
200 198 200 204 223 249 187 198 232 244 246 254 250 260 251 259 267 273 276 277 284 287 289 295 294 299 305 303 291 287 292 303 307 305 300 295 290 280 264 234 229 221 214 213
237 218 204 241 257 257 246 248 272 258 249 260 260 264 255 255 263 271 274 277 282 284 282 287 291 295 303 306 298 283 293 301 302 301 305 306 300 292 284 259 232 219 217 219
219 186 210 246 267 289 262 247 253 261 264 271 278 266 249 247 261 263 269 271 272 278 281 277 274 280 289 302 301 297 299 304 304 303 306 310 311 298 293 279 253 242 235 229
198 190 202 238 240 233 257 262 254 254 263 266 268 273 274 257 261 267 270 271 273 279 285 287 283 284 290 299 301 304 306 299 297 300 305 307 314 309 299 297 312 306 285 276
Height
1502 1506 1509 1508 1507 1505 1506 1505 1505 1504 1502 1504 1503 1501 1499 1498 1497 1496 1495 1495 1495 1494 1495 1494 1493 1492 1493 1494 1495 1496 1498 1499 1501 1502 1503 1505 1506 1508 1510 1512 1514 1516 1517 1519
1508 1510 1507 1505 1504 1504 1504 1505 1506 1504 1503 1503 1503 1501 1497 1496 1495 1494 1494 1493 1493 1492 1492 1491 1490 1490 1490 1490 1491 1492 1493 1495 1497 1499 1500 1502 1503 1505 1507 1509 1511 1512 1514 1516
1509 1510 1506 1505 1505 1505 1503 1505 1505 1505 1504 1503 1504 1501 1497 1495 1494 1493 1493 1492 1491 1490 1490 1489 1488 1488 1488 1488 1488 1489 1490 1492 1494 1496 1498 1499 1501 1502 1503 1505 1507 1509 1510 1512
1510 1508 1506 1506 1506 1506 1504 1503 1502 1503 1506 1508 1506 1506 1497 1496 1494 1493 1492 1491 1489 1489 1488 1487 1487 1486 1486 1486 1486 1487 1488 1489 1490 1492 1494 1495 1496 1497 1498 1501 1503 1505 1507 1509
1511 1509 1508 1507 1507 1506 1505 1503 1502 1502 1506 1510 1508 1510 1500 1497 1495 1493 1491 1490 1488 1488 1487 1486 1485 1485 1484 1484 1484 1485 1485 1486 1487 1489 1490 1492 1493 1494 1496 1498 1500 1502 1503 1505
1511 1509 1508 1508 1506 1506 1505 1505 1505 1507 1510 1513 1508 1510 1501 1499 1494 1492 1491 1489 1487 1486 1485 1484 1484 1483 1483 1482 1482 1482 1483 1483 1484 1485 1487 1488 1489 1491 1492 1494 1496 1498 1500 1501
1514 1510 1508 1508 1507 1507 1507 1512 1518 1518 1519 1512 1506 1506 1501 1495 1492 1491 1490 1488 1486 1485 1484 1482 1481 1481 1480 1480 1480 1480 1480 1481 1482 1483 1484 1485 1486 1487 1488 1490 1492 1493 1495 1497
1519 1516 1510 1509 1509 1511 1511 1513 1520 1522 1520 1513 1507 1505 1498 1493 1490 1489 1489 1487 1486 1484 1483 1481 1480 1479 1479 1478 1478 1477 1478 1478 1479 1480 1480 1482 1483 1484 1485 1487 1488 1490 1491 1493
1520 1516 1510 1509 1508 1509 1511 1514 1514 1521 1523 1522 1510 1504 1497 1491 1490 1489 1488 1486 1484 1483 1482 1481 1479 1478 1478 1477 1477 1476 1475 1476 1476 1477 1478 1479 1479 1480 1481 1483 1484 1486 1488 1490
1515 1519 1512 1510 1508 1508 1510 1512 1518 1521 1521 1517 1510 1507 1498 1491 1490 1488 1487 1485 1483 1482 1481 1480 1479 1478 1477 1476 1475 1474 1474 1473 1473 1474 1475 1475 1476 1477 1478 1479 1480 1482 1484 1486
1514 1519 1517 1513 1513 1512 1512 1514 1515 1519 1520 1518 1514 1502 1490 1488 1487 1487 1486 1485 1483 1482 1481 1479 1478 1477 1476 1475 1474 1473 1472 1471 1471 1471 1471 1472 1473 1474 1475 1476 1477 1478 1480 1482
1513 1518 1520 1514 1510 1509 1510 1511 1514 1517 1519 1519 1516 1503 1487 1487 1486 1486 1485 1484 1483 1482 1480 1478 1477 1475 1474 1473 1471 1470 1470 1469 1468 1468 1468 1469 1470 1470 1471 1472 1473 1474 1476 1477
1512 1517 1519 1512 1514 1512 1511 1510 1512 1513 1515 1516 1513 1500 1488 1486 1485 1485 1485 1483 1482 1480 1479 1477 1475 1473 1472 1471 1469 1468 1468 1467 1466 1466 1465 1466 1466 1466 1467 1468 1469 1470 1471 1473
1507 1513 1514 1510 1505 1506 1509 1508 1508 1511 1513 1512 1504 1494 1488 1486 1485 1484 1483 1482 1480 1479 1477 1475 1473 1471 1470 1468 1467 1466 1465 1464 1464 1463 1462 1462 1462 1463 1463 1464 1465 1466 1467 1468
1506 1510 1510 1506 1502 1504 1504 1503 1504 1505 1502 1502 1494 1492 1484 1483 1483 1482 1481 1480 1478 1477 1475 1473 1472 1470 1468 1466 1464 1463 1462 1462 1461 1460 1459 1459 1459 1459 1459 1460 1460 1461 1462 1464
1506 1508 1508 1505 1501 1501 1499 1496 1497 1497 1496 1495 1491 1487 1481 1481 1481 1480 1479 1478 1476 1475 1473 1472 1470 1468 1466 1464 1462 1461 1459 1459 1458 1457 1456 1455 1455 1455 1455 1455 1456 1457 1458 1460
1506 1507 1507 1504 1502 1500 1497 1491 1490 1491 1489 1489 1487 1482 1479 1479 1478 1477 1476 1475 1474 1473 1471 1469 1468 1466 1464 1462 1460 1458 1457 1456 1455 1454 1452 1452 1451 1451 1451 1452 1453 1453 1454 1456
1503 1505 1505 1504 1506 1504 1486 1484 1484 1484 1483 1483 1480 1478 1477 1476 1475 1474 1473 1472 1471 1470 1468 1467 1465 1463 1461 1459 1457 1456 1454 1453 1452 1451 1450 1449 1448 1448 1448 1449 1449 1450 1451 1452
1497 1500 1503 1505 1505 1494 1485 1481 1482 1483 1480 1478 1477 1476 1475 1474 1473 1471 1471 1470 1469 1467 1466 1464 1462 1460 1458 1456 1454 1453 1451 1450 1449 1447 1447 1446 1445 1444 1444 1444 1445 1446 1447 1448
1497 1497 1500 1502 1500 1494 1480 1479 1478 1481 1479 1472 1472 1472 1472 1472 1474 1469 1467 1467 1465 1464 1462 1460 1458 1456 1454 1453 1451 1450 1448 1447 1446 1444 1443 1442 1442 1441 1441 1441 1441 1442 1443 1444
1498 1499 1499 1499 1497 1486 1479 1477 1478 1483 1474 1469 1469 1469 1469 1469 1468 1466 1464 1463 1462 1460 1458 1456 1454 1452 1451 1449 1448 1446 1445 1444 1442 1441 1440 1439 1438 1437 1437 1437 1438 1439 1440 1440
1492 1495 1495 1495 1493 1483 1475 1476 1477 1473 1468 1467 1466 1466 1466 1465 1463 1462 1461 1460 1458 1456 1454 1453 1451 1449 1447 1446 1444 1442 1441 1440 1439 1438 1437 1436 1435 1434 1434 1434 1434 1435 1436 1437
1486 1484 1482 1482 1478 1472 1470 1469 1468 1468 1467 1465 1464 1464 1463 1461 1460 1459 1457 1456 1454 1453 1451 1449 1447 1445 1444 1442 1441 1439 1438 1437 1436 1434 1433 1432 1431 1431 1431 1431 1431 1432 1432 1433
1480 1479 1479 1478 1471 1469 1467 1466 1465 1465 1464 1463 1462 1461 1460 1458 1457 1456 1454 1452 1451 1449 1447 1445 1443 1442 1440 1439 1438 1436 1435 1434 1432 1431 1430 1429 1428 1428 1428 1427 1428 1428 1428 1429
1474 1475 1474 1472 1468 1465 1463 1462 1462 1462 1461 1460 1459 1458 1457 1455 1454 1452 1450 1449 1447 1446 1444 1442 1440 1438 1437 1436 1434 1433 1432 1431 1429 1428 1427 1426 1425 1425 1424 1424 1424 1424 1425 1425
1469 1470 1470 1465 1462 1462 1459 1459 1459 1458 1457 1456 1455 1454 1453 1452 1450 1448 1447 1445 1444 1442 1440 1438 1437 1435 1434 1432 1431 1430 1429 1428 1427 1425 1424 1423 1422 1421 1421 1421 1421 1421 1422 1422